Theta_e
354 355 356 359 360 357 356 358 356 357 354 356 356 358 357 358 355 353 359 358 359 358 360 361 362 362 359 363 359 366 366 367 366 371 371 369 371 371 369 370 368 367 370 365 360 361 368 363 366 364 371 365 367 359 360 362 362 367 365 367 364 363 365 362 357 355 359 361 357 354 353 355 351 364 355 354 352 361 356 356 362 354 354 351 351
355 357 357 356 356 357 357 356 356 357 354 354 355 354 353 355 359 359 354 358 359 356 361 355 359 361 357 361 363 363 366 372 363 365 368 369 365 358 359 368 368 366 369 372 371 361 365 370 368 364 366 364 362 355 361 358 353 360 367 362 361 362 366 362 360 358 354 361 364 365 357 357 352 362 356 355 354 361 355 354 352 351 348 351 350
361 361 361 360 358 358 357 357 357 354 352 351 350 351 352 354 357 355 353 353 357 359 358 356 365 365 363 365 366 362 366 365 366 365 366 368 366 361 359 363 364 361 360 364 362 366 362 366 362 362 357 360 362 362 358 359 361 358 354 356 362 364 361 364 364 357 354 357 362 356 358 360 359 357 358 357 362 358 358 355 350 350 352 352 354
364 363 360 358 358 359 357 359 355 354 351 350 349 349 349 351 355 353 353 352 353 359 361 360 366 370 363 366 367 367 369 367 366 363 367 366 367 369 367 367 363 363 362 361 360 363 363 367 359 359 365 363 365 368 365 360 368 369 362 367 376 370 371 369 367 361 359 355 365 361 362 360 360 360 358 356 355 355 354 357 359 353 354 353 351
363 364 360 357 356 356 354 356 353 357 359 356 349 349 348 347 349 350 351 351 351 353 361 362 364 369 358 361 364 368 365 366 366 360 364 363 367 362 364 365 364 365 364 366 363 367 366 364 364 366 366 365 364 362 358 364 361 361 361 368 362 365 363 362 364 365 361 358 359 363 364 362 361 359 361 356 357 355 361 357 355 355 358 355 349
365 363 361 357 358 354 350 349 352 354 357 358 356 348 347 346 346 347 348 350 353 350 354 354 356 366 366 364 363 365 366 366 367 365 360 362 362 363 364 366 362 364 363 360 362 364 360 363 362 364 361 361 358 364 365 359 359 358 359 367 363 360 365 366 365 362 362 360 358 357 363 357 356 366 362 357 352 349 351 356 359 360 362 357 355
368 367 365 360 359 356 351 351 351 353 359 362 361 355 349 346 344 345 347 349 349 348 347 355 360 360 366 363 360 363 365 362 367 367 364 362 363 363 359 361 365 362 360 359 357 358 358 358 362 361 361 364 359 359 362 361 359 361 365 366 369 369 364 361 364 363 361 358 357 357 355 361 359 350 354 358 356 354 352 353 350 355 362 364 360
364 368 365 364 365 362 360 358 361 364 366 365 365 363 358 354 352 352 355 349 346 346 347 347 352 355 359 361 363 365 366 364 368 368 366 363 359 362 361 361 361 358 359 362 357 354 355 357 354 356 362 369 365 367 366 363 368 366 366 371 368 367 363 361 362 361 359 356 356 353 357 354 356 358 357 361 360 358 357 348 343 353 356 359 356
361 360 363 363 364 365 365 367 367 368 368 367 365 365 363 358 358 357 357 352 345 347 347 346 348 351 355 361 363 360 356 360 363 363 361 366 362 359 358 358 359 359 359 356 357 360 359 356 352 353 361 363 364 366 367 364 358 364 370 368 367 366 366 364 361 362 359 356 354 357 354 353 355 356 356 350 348 347 352 357 354 355 355 355 357
362 362 362 364 365 366 366 366 365 365 367 367 367 367 364 364 361 363 363 363 360 360 363 359 349 347 350 353 356 356 354 353 358 365 363 363 364 360 358 364 361 361 362 361 358 356 355 355 355 359 368 367 370 370 372 373 365 360 366 366 369 366 363 360 359 358 358 357 353 351 348 348 347 347 348 350 350 356 356 356 355 356 357 357 358
360 360 361 362 364 365 365 363 364 364 365 365 366 367 366 366 365 364 364 364 367 366 365 359 353 349 345 346 350 349 349 344 335 339 348 358 362 364 364 367 365 364 360 361 362 362 359 358 359 362 368 366 370 371 373 368 371 366 367 364 366 366 358 357 358 358 356 354 354 351 350 350 352 354 353 354 360 357 357 358 358 358 356 353 350
354 355 356 359 362 361 361 361 361 360 361 361 362 362 363 363 362 362 361 360 364 360 358 359 360 356 349 349 349 351 345 333 330 333 336 337 352 365 358 360 359 361 360 356 356 356 355 354 351 351 351 355 357 370 371 369 367 367 364 365 365 365 363 360 358 356 356 353 353 353 353 353 356 357 357 359 358 356 359 359 357 356 354 353 352
354 354 353 351 351 355 357 357 356 357 358 358 360 360 360 360 360 359 355 356 359 359 357 357 359 353 348 349 352 351 345 329 329 330 331 333 337 356 358 361 354 353 356 358 355 352 349 349 349 351 353 358 356 355 367 371 368 363 365 366 368 364 349 347 350 356 356 355 354 352 353 356 356 359 361 361 362 356 356 354 354 353 353 351 351
347 347 348 350 352 354 353 354 352 354 354 356 359 359 358 357 358 357 356 357 358 359 358 361 361 354 351 352 354 349 343 329 326 328 329 331 334 347 360 360 357 356 359 356 352 354 352 352 351 350 353 355 353 352 365 367 365 365 365 367 367 367 367 353 350 347 351 351 352 351 355 359 358 362 367 367 358 355 354 352 355 354 353 353 355
340 342 343 345 347 348 349 350 349 350 352 354 354 354 354 354 353 355 357 357 356 357 360 360 356 351 352 355 355 349 333 321 323 324 325 328 333 351 361 360 360 360 357 356 354 353 356 356 356 355 356 356 346 344 354 358 363 357 363 362 361 364 361 359 359 355 356 355 356 357 360 363 363 360 359 360 358 358 357 355 356 356 356 358 358
336 340 341 342 342 343 343 343 344 346 348 349 349 350 350 350 350 353 353 353 355 358 359 357 353 351 350 352 351 350 333 318 318 320 322 325 333 357 361 362 360 356 355 354 355 356 355 354 355 356 359 349 336 331 340 354 360 360 360 359 360 358 361 365 350 352 361 360 360 358 357 357 349 354 355 355 355 357 358 357 357 357 355 354 352
332 334 337 339 341 343 343 343 343 342 343 342 342 343 344 346 348 349 347 350 353 353 354 351 352 351 349 350 349 341 332 320 316 316 318 321 342 357 360 360 359 357 356 355 355 357 358 358 358 357 352 339 330 322 327 350 357 357 358 356 357 357 359 359 346 339 339 335 333 335 333 331 331 330 329 330 340 349 353 351 351 354 352 349 350
331 332 332 334 338 340 343 343 342 342 341 340 341 343 345 346 347 347 345 344 347 351 352 349 351 348 348 347 345 336 330 321 314 314 314 317 335 353 359 358 355 357 356 355 355 356 353 355 350 342 336 332 320 320 322 343 351 352 352 350 351 352 355 351 348 346 340 335 336 335 333 332 332 332 333 332 332 339 349 350 354 355 351 351 348
329 329 331 333 335 339 340 340 342 342 340 339 340 340 342 344 347 349 348 347 347 350 352 348 348 348 349 346 343 337 332 326 314 312 313 314 331 350 358 356 352 354 354 354 354 356 347 337 338 334 331 326 316 317 320 334 340 341 343 342 342 347 339 332 334 334 338 337 339 342 344 345 352 354 355 350 345 351 352 356 358 357 353 352 351
329 330 331 332 334 334 333 337 338 337 337 339 341 341 343 345 347 347 347 348 345 345 347 347 346 346 346 342 340 334 329 326 320 311 311 313 317 344 355 350 348 347 350 351 351 353 349 338 333 320 319 316 314 313 314 318 334 337 338 337 340 344 339 334 336 335 337 336 337 340 342 343 346 347 343 340 345 363 360 361 363 360 357 355 353
330 330 329 327 325 326 327 330 331 333 335 337 338 341 346 345 344 343 341 338 338 341 341 346 344 341 340 339 338 337 332 326 322 310 310 310 313 328 334 334 338 343 343 346 348 348 351 346 334 324 316 314 312 310 309 313 321 335 338 339 342 341 338 335 336 339 335 339 340 342 345 349 345 343 343 345 345 361 366 367 360 351 345 342 343
326 325 325 323 323 326 327 331 331 331 333 336 339 340 338 339 341 337 334 333 334 337 341 344 345 341 340 338 336 333 334 331 325 316 311 310 310 316 329 327 327 336 342 345 347 348 350 351 340 327 314 314 311 309 307 309 315 330 336 326 322 322 339 341 338 336 334 335 338 344 348 345 342 344 345 346 347 353 351 348 347 347 348 348 350
329 329 327 324 327 329 331 329 331 333 334 334 335 335 338 336 337 341 339 334 333 337 339 342 344 342 337 334 332 330 330 329 328 326 316 310 310 312 315 324 320 333 328 336 345 347 349 343 336 329 313 309 307 306 307 308 316 325 317 316 318 321 333 338 339 339 338 337 342 348 348 345 343 342 343 349 350 353 349 349 349 350 355 356 356
326 324 327 329 328 325 322 322 327 328 328 334 334 332 333 335 337 339 341 338 339 337 338 341 342 339 336 333 331 329 328 328 329 329 325 315 314 313 313 315 318 326 331 331 331 330 329 329 331 315 306 304 305 308 309 314 322 314 313 316 319 326 333 336 335 337 339 339 346 349 343 344 344 342 349 349 349 352 352 351 351 352 352 353 355
328 325 324 322 322 324 327 326 324 328 327 326 328 328 325 327 329 328 330 337 337 334 337 339 340 338 336 333 332 332 331 331 330 331 327 324 317 316 317 319 322 320 331 331 329 328 322 312 309 309 310 309 308 310 313 315 310 309 309 312 327 332 337 340 339 341 342 346 346 343 344 343 344 353 348 352 354 354 353 352 354 353 350 349 350
328 328 327 327 327 325 324 320 322 325 325 325 326 328 324 325 326 328 328 326 327 331 336 336 334 332 334 333 335 337 338 335 335 333 333 331 329 324 322 324 331 331 334 325 325 319 316 315 315 315 318 321 330 333 332 335 332 329 325 327 332 337 338 337 338 339 342 345 343 341 339 347 348 345 349 352 352 349 350 354 348 345 346 345 342
326 327 326 327 327 327 324 324 325 325 327 323 323 324 324 325 323 328 329 331 328 330 329 332 334 333 333 333 334 336 327 325 325 321 321 321 321 324 325 325 326 326 327 323 322 321 323 323 321 317 316 317 318 318 320 325 327 330 331 334 334 335 340 342 339 342 346 347 344 343 353 350 348 348 349 351 347 349 352 347 344 343 343 342 339
325 325 323 324 324 321 317 319 325 319 317 320 319 319 321 322 323 323 322 320 321 324 326 332 329 328 328 331 334 329 322 319 316 316 314 315 317 319 320 320 319 320 319 317 315 318 321 324 324 332 336 339 340 340 338 337 336 335 336 338 340 339 340 344 347 339 342 347 346 351 351 354 348 349 347 342 343 346 349 347 346 341 339 338 335
325 321 321 317 313 327 320 319 319 321 326 323 319 317 315 317 322 319 317 317 317 317 321 322 322 322 323 320 322 324 320 315 313 307 312 305 312 313 314 314 313 315 317 308 313 317 320 324 330 333 334 333 334 336 334 341 341 339 339 341 341 339 342 344 344 355 348 347 350 349 345 347 345 344 344 341 343 343 349 342 340 338 339 340 337
323 323 322 318 319 321 322 320 319 320 320 321 320 315 314 307 312 322 318 314 308 305 309 314 315 319 324 317 318 322 320 314 305 298 298 297 297 298 300 297 296 305 306 303 310 315 320 323 326 327 328 330 328 328 326 329 332 335 336 330 339 334 334 335 338 338 339 340 340 339 339 336 336 340 342 338 339 345 341 333 338 340 338 334 331
323 319 320 316 317 322 321 321 325 324 325 322 324 322 319 316 300 303 313 313 302 295 295 297 301 307 321 315 309 307 305 299 296 298 297 297 296 295 295 295 295 295 297 307 314 317 318 319 322 326 330 326 326 326 329 330 330 330 329 330 332 332 331 334 337 336 337 337 336 337 337 337 336 336 336 336 336 338 342 340 336 334 331 330 330
327 323 321 320 322 323 324 323 323 325 324 323 327 323 323 322 317 303 298 303 301 296 293 292 292 295 300 310 320 311 303 296 296 296 297 296 296 296 295 294 294 295 296 300 310 314 318 322 326 326 328 328 332 331 327 326 329 330 330 330 329 331 334 337 339 339 337 336 336 334 335 334 334 333 333 332 333 334 333 332 332 331 331 332 331
320 319 320 322 321 320 322 322 322 321 321 324 327 325 323 323 321 318 315 300 298 298 297 292 291 292 293 294 297 304 306 304 298 296 295 296 295 295 295 294 294 293 297 307 311 314 321 326 325 327 330 328 327 328 330 329 329 330 332 333 332 334 336 336 336 339 337 336 336 335 335 334 333 333 331 331 330 328 328 328 330 331 330 329 329
320 320 320 321 322 321 321 321 320 323 323 322 324 321 323 323 321 322 320 316 314 307 299 297 295 292 293 292 294 295 294 294 293 294 295 295 295 295 294 303 299 297 301 313 316 320 324 327 328 327 328 329 328 328 330 331 333 334 335 335 332 334 335 336 335 334 332 332 330 330 330 329 329 329 329 329 329 328 328 326 327 327 327 327 326
315 314 313 319 323 321 323 324 322 323 321 322 322 321 322 324 323 320 321 320 321 319 317 315 301 294 309 303 296 292 293 294 294 295 295 295 296 294 295 312 320 309 307 310 315 319 326 328 328 330 329 329 330 330 331 331 332 331 330 330 330 331 332 331 331 332 328 327 327 327 327 327 327 327 327 326 326 326 326 326 325 326 325 325 325
320 316 313 315 320 321 320 321 321 322 322 322 321 320 320 320 319 321 321 322 321 322 322 320 318 308 300 299 299 294 293 294 296 296 296 295 295 296 315 323 325 325 323 321 321 327 329 328 327 328 329 329 330 329 328 327 327 327 328 327 326 327 329 328 326 326 327 327 327 329 326 330 330 329 328 327 327 325 324 324 324 324 324 323 324
320 319 320 319 320 320 321 319 320 319 313 314 314 317 320 320 321 319 319 321 322 324 322 324 321 317 311 315 312 297 294 294 296 296 296 296 295 306 315 322 324 324 325 324 324 324 325 325 327 327 326 325 325 324 325 325 326 327 326 327 327 326 325 325 325 326 329 328 327 328 328 326 327 327 324 322 322 323 323 323 322 321 322 321 321
321 321 320 319 320 319 320 321 319 314 318 317 318 320 317 318 318 318 317 318 319 318 317 319 322 319 317 318 322 318 320 306 300 298 298 298 306 316 322 323 322 323 321 323 323 324 323 324 323 322 322 322 322 322 322 323 322 322 322 323 324 325 324 325 327 325 323 323 322 323 322 323 323 323 321 321 320 320 321 320 319 318 319 319 319
322 315 314 311 310 316 318 319 319 318 318 318 318 319 317 315 315 316 318 318 319 318 320 319 319 318 319 321 320 319 318 314 313 313 316 318 322 321 321 321 322 321 320 322 321 323 321 321 321 321 321 320 320 320 320 320 320 321 322 321 320 321 320 320 320 321 320 319 319 320 320 320 321 321 320 319 318 319 318 317 317 317 316 316 317
319 316 314 313 312 310 313 315 316 316 316 316 315 316 317 317 317 317 317 317 317 318 318 318 318 317 317 316 314 314 312 312 312 312 313 314 317 319 320 319 320 319 320 321 320 319 319 317 318 318 319 318 318 318 318 318 317 317 317 317 317 316 317 317 317 316 316 317 317 318 317 318 318 318 318 318 317 317 316 316 316 316 316 316 316
320 319 314 312 317 316 316 316 315 316 317 318 317 316 315 316 316 315 313 313 313 314 315 318 316 312 310 308 303 306 312 311 311 312 312 313 315 317 318 318 317 317 316 318 317 316 315 316 315 316 316 317 317 316 315 314 314 314 313 314 314 313 313 314 315 314 313 314 313 311 310 311 310 310 310 311 313 313 314 314 314 314 314 314 314
319 318 315 314 313 314 315 314 315 318 318 316 316 314 314 313 313 314 315 314 315 314 313 314 315 312 305 298 299 299 309 313 312 312 313 314 315 317 316 318 318 319 315 314 315 315 314 315 314 314 314 314 313 314 313 312 312 311 311 311 311 311 311 311 311 309 309 308 309 309 309 309 309 309 309 309 308 308 307 307 307 308 309 309 310
321 320 318 317 314 313 313 315 316 316 315 314 314 313 314 313 313 315 314 314 314 313 313 312 313 313 310 304 305 301 313 313 312 312 313 312 312 312 313 313 313 314 314 313 313 313 313 312 312 312 312 312 313 312 311 311 311 310 310 310 309 309 308 306 306 306 306 306 306 307 307 306 306 306 306 307 307 306 306 305 305 305 305 306 306
320 318 318 318 317 317 316 315 315 315 315 315 314 315 315 315 314 314 313 313 313 312 312 312 312 313 313 308 307 311 312 311 311 310 311 310 311 310 311 311 311 311 311 312 311 311 310 310 310 311 312 312 312 312 311 310 310 309 309 308 308 306 303 303 303 303 304 304 304 303 303 303 304 304 304 305 304 304 304 304 304 303 303 304 305
319 318 316 315 316 316 315 317 314 314 314 313 312 312 312 310 309 310 311 311 312 311 311 311 311 311 310 311 312 310 309 309 309 309 309 308 308 309 309 309 309 310 309 309 308 308 308 308 308 309 310 310 310 310 310 309 310 309 308 306 302 301 300 300 301 302 303 303 301 301 301 302 302 302 303 303 303 303 303 302 302 303 302 302 301
318 317 315 315 314 315 315 314 314 313 312 311 311 310 311 311 312 312 311 310 310 310 309 309 309 309 309 308 308 308 308 308 308 307 307 307 307 307 308 307 308 308 308 307 307 307 306 307 307 307 307 308 308 308 308 309 309 309 305 302 300 299 299 300 301 302 300 299 299 299 300 300 300 301 303 302 302 302 301 301 301 300 300 299 299
316 316 314 313 312 314 315 316 315 312 313 311 311 311 311 310 311 311 311 309 309 308 307 307 307 307 307 308 307 308 307 306 306 305 306 306 307 306 306 307 306 306 305 305 305 305 305 306 306 306 306 306 306 307 307 307 307 306 301 299 298 298 297 299 300 299 297 298 298 298 298 298 298 299 300 300 300 299 300 300 300 300 299 299 299
314 314 314 315 314 313 313 313 313 312 311 311 310 309 309 309 309 308 308 308 307 307 306 306 306 306 306 306 307 306 305 305 305 305 305 304 305 305 305 306 305 304 304 304 304 304 304 304 304 304 304 305 304 304 305 305 305 305 299 299 297 297 297 298 298 297 296 297 297 297 297 296 297 297 297 298 298 298 297 297 298 298 298 299 299
314 314 313 313 312 312 313 312 312 310 309 309 308 308 308 307 307 307 307 307 307 306 305 305 305 305 305 305 304 304 304 304 304 303 303 303 304 304 304 304 304 303 303 302 303 303 303 303 304 304 303 304 304 304 303 303 303 302 298 297 295 294 293 295 296 295 295 296 296 296 296 296 296 296 297 297 297 297 297 297 298 298 299 299 299
313 313 312 312 311 310 312 310 310 309 309 308 308 309 309 308 307 306 306 306 306 305 304 304 304 303 303 302 302 302 302 302 302 302 302 302 302 302 303 302 302 302 302 301 301 302 302 303 303 302 302 303 303 303 302 302 302 299 298 295 291 290 291 294 295 294 294 294 294 295 295 296 296 296 296 296 297 297 297 297 298 299 299 298 299
315 313 310 309 309 309 308 308 307 306 306 306 305 304 304 304 305 306 306 305 305 304 303 303 303 303 303 303 303 302 301 301 301 301 301 301 301 301 301 301 301 301 301 301 301 301 301 301 301 301 301 301 301 301 301 302 300 299 295 291 289 289 289 291 293 290 291 292 294 294 295 295 296 296 296 297 297 297 298 299 299 298 298 299 299
Wind_Speed
10 8 8 7 7 9 10 8 9 7 7 8 7 6 5 7 8 6 6 6 6 7 6 5 6 4 6 4 5 3 4 4 4 2 3 4 3 3 2 3 3 3 3 3 4 4 4 2 2 1 2 2 2 4 3 4 3 3 5 5 4 4 4 3 3 5 4 5 6 3 6 6 5 3 4 4 5 3 5 5 4 6 6 5 5
9 8 7 9 7 7 8 9 9 7 8 7 7 8 8 5 5 4 6 5 5 6 4 7 4 5 5 4 4 5 2 3 5 3 4 3 4 5 6 5 4 4 2 2 1 3 2 2 2 3 5 4 3 4 2 6 5 2 2 3 3 3 3 4 3 2 4 3 3 3 4 3 5 4 5 6 5 4 5 4 5 5 5 5 5
7 7 6 7 8 8 7 7 7 9 10 8 9 8 7 7 5 5 6 6 6 4 6 6 3 4 4 4 5 5 6 5 3 5 4 3 4 5 2 3 4 4 4 3 3 3 3 3 3 4 6 2 3 2 2 2 1 3 6 6 3 3 4 4 4 4 4 3 3 4 3 5 4 5 6 5 4 4 5 5 4 6 6 6 5
5 5 6 6 7 6 6 6 8 8 9 8 9 9 7 7 5 6 7 6 5 4 3 4 4 3 4 3 3 3 4 4 4 4 4 4 4 3 4 3 4 4 4 3 4 3 3 2 4 4 2 1 3 2 2 3 1 1 2 2 1 1 2 3 3 3 2 3 2 2 3 4 5 7 6 4 4 4 5 4 3 4 6 6 5
4 5 6 6 7 7 8 6 8 7 6 5 8 8 8 8 7 7 7 7 7 5 4 3 4 3 5 5 4 3 4 5 5 6 4 4 3 5 4 4 5 5 4 3 5 3 2 3 2 2 3 2 2 2 1 2 3 4 4 2 3 1 3 4 5 3 3 3 3 3 4 5 5 7 5 4 4 4 3 4 6 6 5 3 6
5 5 5 6 5 7 8 9 8 7 6 4 4 8 8 8 8 8 8 7 6 6 6 7 5 4 4 5 5 5 4 5 4 5 5 4 6 5 3 3 4 4 3 5 4 4 4 3 3 3 3 4 3 1 2 4 5 8 3 2 2 3 3 2 3 4 4 4 4 5 3 5 3 2 3 5 6 5 5 6 5 4 4 4 3
4 6 6 6 5 6 7 7 7 6 4 4 4 5 7 8 8 8 7 6 7 7 7 6 4 5 5 6 7 5 4 5 4 4 5 6 4 2 5 4 3 4 5 6 7 6 6 5 4 4 4 3 3 3 3 2 3 3 3 2 1 1 2 4 3 3 3 3 3 3 4 3 3 6 6 6 6 5 5 5 5 4 3 3 4
7 6 7 6 5 6 5 5 5 4 3 4 3 3 5 7 7 5 3 5 7 8 8 6 7 6 7 7 5 5 4 5 4 4 5 5 5 4 1 4 2 5 7 6 6 6 5 4 6 5 3 2 3 2 3 2 2 2 3 2 0 2 3 4 4 4 4 4 4 5 3 5 5 5 6 3 3 3 4 4 6 5 5 4 4
6 6 5 5 5 5 4 3 3 3 3 4 4 4 4 5 6 6 5 6 7 7 7 9 5 8 6 5 5 6 7 6 6 5 6 5 4 5 7 7 3 4 4 7 6 6 4 5 5 5 5 9 10 5 3 4 2 0 1 2 2 2 2 2 4 4 4 5 5 4 5 6 6 5 3 4 5 6 4 6 6 6 7 8 7
6 6 5 5 4 4 4 3 2 3 2 2 2 2 3 4 4 4 6 7 6 4 4 4 8 5 6 7 8 6 7 6 6 12 8 5 4 4 4 1 1 3 4 6 7 6 6 6 8 8 8 9 8 6 7 6 3 1 0 1 2 2 2 3 4 4 4 4 5 5 5 5 5 5 6 4 4 7 8 8 8 8 8 7 7
5 5 5 5 4 4 4 3 3 3 3 2 2 1 0 1 2 3 4 4 4 6 6 6 6 8 8 5 6 5 6 8 13 10 2 6 6 4 2 2 3 2 1 3 6 6 6 5 5 0 3 4 4 5 4 4 4 2 3 2 1 1 3 4 4 4 5 5 5 5 5 6 6 5 5 6 6 6 6 5 6 7 7 7 9
4 4 4 4 3 4 3 3 3 3 3 3 3 2 2 2 1 2 2 3 3 5 7 6 4 6 7 10 11 8 5 11 15 13 11 12 10 2 4 3 3 3 3 5 7 6 8 12 13 12 12 17 13 2 3 6 6 5 5 4 4 5 4 4 4 5 5 5 5 5 6 5 5 5 5 5 5 5 5 5 5 6 7 8 7
4 4 2 6 7 7 4 3 3 2 2 3 3 2 3 3 3 3 4 3 2 2 4 7 5 7 7 6 4 5 6 10 11 11 11 11 10 8 3 3 3 5 3 2 5 7 4 1 1 3 2 4 8 13 6 1 2 2 4 4 5 6 9 3 3 6 4 5 6 7 6 6 6 4 4 4 3 5 5 6 6 7 7 8 8
6 6 7 6 5 4 3 4 5 4 4 4 3 3 4 4 4 4 5 4 3 4 5 5 2 3 3 4 4 5 5 7 8 9 9 9 9 6 3 4 3 4 4 7 5 4 5 2 1 2 1 2 1 5 7 3 3 2 2 2 4 6 3 7 8 6 5 5 5 7 8 7 7 5 4 3 5 6 7 7 7 8 8 8 8
7 6 5 4 4 5 5 2 2 4 6 5 3 2 2 3 3 4 4 3 2 3 3 1 4 4 3 3 4 6 5 9 8 8 8 8 9 4 2 2 3 4 5 6 6 4 3 0 2 1 3 3 2 3 5 5 3 3 4 4 4 3 3 4 4 3 3 4 6 7 7 5 3 5 5 5 5 5 5 7 8 8 8 9 8
9 8 7 5 5 5 5 5 6 6 4 2 2 1 2 1 4 4 4 3 2 1 3 4 5 4 3 3 2 4 5 9 9 8 8 8 7 3 2 2 4 4 4 5 5 5 3 2 1 1 1 5 6 7 5 4 3 3 3 4 3 4 2 4 6 6 6 4 4 5 6 7 7 8 7 7 6 6 6 6 6 7 7 6 6
8 7 7 7 6 5 5 5 5 5 5 6 5 4 3 3 1 3 4 3 5 5 4 4 3 4 4 4 4 5 5 7 9 8 8 10 6 2 3 2 3 3 3 4 4 4 5 2 2 2 4 5 7 10 11 7 3 3 3 4 5 4 4 3 6 9 10 10 11 10 10 12 13 14 14 14 10 5 3 5 7 6 6 7 6
7 7 7 7 6 5 4 4 5 5 5 5 4 4 3 4 3 2 2 2 3 6 5 4 4 3 4 5 5 5 4 6 10 9 9 9 6 3 2 2 1 2 2 3 2 2 5 10 8 6 5 4 7 9 11 8 3 4 4 5 5 5 2 4 4 3 2 6 9 10 11 12 13 14 15 15 16 5 4 5 6 4 6 5 6
7 7 7 6 6 5 5 6 5 5 5 5 4 4 4 4 2 1 1 2 4 4 4 8 7 5 5 6 10 8 5 6 10 9 10 10 6 3 2 2 2 3 3 2 1 1 5 7 9 6 4 2 5 6 8 7 5 4 4 4 4 3 5 6 5 5 5 6 5 6 6 8 7 7 9 15 17 9 7 6 5 4 5 5 6
6 7 7 8 6 6 7 5 5 5 5 4 4 4 3 2 1 2 3 4 4 5 3 3 9 8 8 7 6 7 6 5 6 8 10 12 11 4 3 4 4 2 2 3 3 2 5 4 3 3 4 3 4 5 5 5 3 4 4 4 4 4 6 6 5 5 5 6 6 6 7 8 7 5 5 6 8 5 5 5 4 3 4 5 5
6 7 7 7 8 9 9 9 8 8 5 4 3 2 1 3 5 5 5 5 6 6 8 3 8 9 8 7 6 6 6 6 6 9 10 12 13 9 6 5 2 2 2 1 1 2 1 3 3 2 3 4 4 5 3 3 2 2 2 3 3 3 4 5 6 10 6 6 6 6 6 4 5 6 6 5 5 5 0 2 3 5 6 6 7
6 6 6 6 7 7 7 7 7 6 7 6 2 2 4 5 3 5 4 3 3 5 5 5 4 7 7 7 6 6 8 10 5 6 9 10 11 11 6 4 3 4 3 2 3 3 3 3 3 2 3 4 5 4 5 3 3 2 4 6 7 7 5 4 5 5 6 6 6 6 5 5 6 6 6 5 5 6 6 6 7 7 6 5 5
5 6 6 5 4 5 3 3 4 6 6 7 6 4 3 4 3 3 3 4 4 5 5 4 3 4 5 5 4 5 5 6 8 6 7 8 8 8 6 4 7 5 4 3 4 1 2 4 4 4 2 4 5 6 7 7 5 6 10 10 10 7 5 4 5 5 5 6 6 5 5 5 6 5 5 6 6 6 6 5 6 7 4 5 6
3 4 4 4 5 5 5 3 3 2 2 3 5 6 7 6 6 6 3 3 3 3 3 1 2 4 4 4 5 5 5 5 5 6 4 5 5 6 7 8 8 7 5 5 6 6 5 4 4 6 8 8 8 7 8 8 7 11 11 11 9 6 4 5 5 6 6 6 6 4 5 5 5 5 4 5 5 4 5 5 5 6 6 5 5
4 4 4 4 3 3 4 5 3 0 1 3 3 4 5 5 4 5 6 4 4 4 4 0 2 2 7 6 5 5 5 5 4 3 5 4 4 6 8 11 13 13 8 6 7 6 5 6 8 9 9 11 11 10 9 11 14 13 12 10 7 4 5 5 5 5 5 5 3 5 3 4 4 3 5 4 4 4 4 5 4 4 5 5 5
3 3 3 2 2 2 2 5 4 2 2 1 2 2 2 2 3 4 3 5 6 7 5 3 5 6 3 6 6 5 5 4 4 4 4 6 7 10 8 10 14 15 11 9 13 14 15 15 15 12 11 9 7 6 6 6 6 7 8 7 4 5 5 5 5 6 6 4 3 4 5 3 4 6 6 5 5 5 5 3 4 5 4 5 7
2 2 3 2 2 2 3 2 2 4 4 4 2 3 2 2 1 1 2 5 5 4 5 5 5 6 7 5 5 5 8 6 6 5 6 5 6 7 8 8 12 11 8 7 9 8 10 11 10 14 13 15 14 12 11 10 9 7 5 4 5 5 6 5 6 6 3 2 3 4 2 3 4 4 5 4 5 5 3 4 4 4 5 5 7
3 3 4 4 3 3 2 1 3 1 5 6 5 5 4 2 3 6 6 5 5 6 6 5 6 6 7 7 3 6 6 6 6 5 5 5 5 5 5 6 6 6 7 6 7 8 8 9 10 8 8 7 7 5 5 6 5 5 5 6 6 7 8 11 10 4 3 2 4 3 1 1 3 3 3 4 5 5 3 3 4 6 5 6 6
2 2 3 4 3 1 2 3 6 5 2 7 7 5 4 5 6 6 6 5 4 3 4 4 4 5 6 6 8 6 5 5 4 3 3 3 4 4 4 4 4 5 5 8 7 7 7 7 6 7 6 7 7 6 3 4 6 6 8 4 2 2 2 2 2 3 4 3 1 2 3 3 4 4 3 4 4 5 3 5 5 6 6 5 5
1 3 5 6 5 4 5 5 5 5 6 4 6 5 7 9 6 4 4 6 7 6 5 3 3 5 6 8 5 4 4 3 3 1 1 2 2 2 2 4 4 4 7 11 6 5 6 6 6 7 6 4 5 4 4 5 4 3 3 5 3 3 5 6 8 7 6 6 6 5 5 5 5 4 3 4 5 2 3 4 4 4 6 6 7
1 3 4 4 3 4 4 4 3 3 3 3 3 3 4 6 11 12 8 5 5 7 8 7 9 8 5 6 7 10 10 7 6 3 3 3 3 6 7 7 6 5 5 7 5 5 6 6 7 5 4 5 5 4 5 5 5 5 6 6 5 6 5 5 6 6 5 5 5 4 5 4 5 5 5 5 5 3 2 3 4 6 6 7 7
1 3 4 3 3 1 3 3 1 2 3 2 1 2 1 3 3 4 5 6 4 5 6 6 6 6 8 7 5 3 4 7 7 6 5 5 6 7 9 8 6 2 3 1 3 6 5 6 6 5 4 4 2 3 5 5 4 5 5 5 5 4 5 5 5 5 5 5 4 4 5 5 5 4 5 5 4 5 5 5 5 5 5 5 5
2 3 3 3 3 2 1 3 1 3 3 1 1 1 3 2 4 3 1 4 5 3 4 4 3 3 5 6 5 5 4 3 4 6 6 7 8 9 9 9 8 3 3 2 4 6 6 5 5 4 2 4 4 4 4 4 5 4 4 4 4 4 5 6 7 6 5 5 5 4 4 5 6 6 6 6 6 6 6 6 5 5 6 6 5
6 5 4 4 4 3 3 2 1 3 3 1 2 3 2 3 3 1 5 3 1 0 1 1 2 0 2 4 5 4 4 5 6 6 7 8 10 10 7 7 8 7 7 5 4 5 6 4 3 5 4 4 4 4 4 4 4 3 3 4 5 5 5 5 5 5 6 7 7 7 7 7 7 7 7 7 6 6 6 5 5 6 5 5 6
4 4 4 2 1 2 1 1 3 3 3 3 3 3 3 3 2 2 2 1 4 5 5 5 5 6 4 2 4 5 7 7 7 8 9 10 10 8 8 8 4 3 3 6 5 5 5 3 4 4 4 4 4 3 3 4 4 5 5 5 4 5 5 5 5 6 6 6 6 5 5 5 5 5 5 6 6 6 6 6 6 5 5 5 6
4 4 4 3 1 1 2 3 2 2 3 3 2 3 2 2 3 3 2 1 3 3 4 6 5 8 9 5 5 7 9 9 9 9 10 10 8 4 5 5 4 2 3 5 6 3 3 5 5 4 4 4 4 5 5 5 6 6 5 6 7 7 5 6 6 6 7 6 5 5 5 5 4 4 4 5 5 6 6 6 6 6 7 6 6
4 4 4 2 2 2 2 2 1 2 1 2 2 3 2 2 2 2 2 3 2 1 3 4 6 4 4 5 7 8 10 9 10 10 10 10 4 2 5 5 4 4 4 5 6 5 4 4 4 5 6 6 6 6 6 5 5 5 6 6 6 5 5 5 6 6 5 4 5 5 6 6 6 6 7 7 7 6 6 7 8 9 8 10 10
1 2 4 4 2 2 2 2 3 3 3 3 3 3 2 1 1 1 3 3 2 2 2 3 2 3 7 5 10 7 5 8 6 5 8 8 6 5 3 4 3 3 5 5 5 4 5 4 5 6 5 6 6 6 5 5 5 5 6 6 6 5 9 8 7 9 9 9 9 8 8 8 8 8 8 8 8 8 8 8 8 9 9 10 8
4 5 6 6 2 1 2 2 3 3 3 3 2 2 1 2 2 2 3 2 2 2 2 1 2 3 7 4 4 5 5 5 6 6 7 7 5 5 4 3 3 4 4 3 3 3 3 4 5 5 5 6 6 6 6 6 6 5 5 4 4 4 5 5 6 6 7 7 7 8 8 8 8 7 7 7 7 8 8 9 9 8 9 9 8
5 5 4 3 3 2 3 2 1 2 2 1 1 1 1 1 1 1 1 2 1 1 2 2 3 6 4 5 5 5 5 5 4 4 4 4 5 5 4 4 4 5 3 3 4 5 5 6 6 5 5 5 6 6 7 7 8 8 8 8 8 8 8 7 8 8 8 8 7 8 9 9 10 11 9 8 9 8 9 9 8 8 8 9 9
6 6 6 6 3 4 4 3 3 3 3 3 1 1 1 0 1 1 2 2 2 2 2 2 6 5 5 7 7 4 3 4 3 3 3 3 3 3 3 4 4 4 4 4 5 5 5 6 5 5 5 5 5 6 6 6 7 7 8 8 8 8 8 8 8 8 10 10 10 10 10 10 10 10 10 11 12 12 10 10 10 10 10 10 10
7 8 7 6 4 4 4 4 4 4 2 1 1 1 2 2 2 2 2 2 2 2 2 2 5 4 5 6 5 1 1 2 1 1 2 2 2 3 3 2 3 3 5 7 7 6 5 4 5 5 5 6 6 6 6 7 7 7 7 7 7 8 8 8 8 10 9 9 9 10 9 9 9 9 9 10 9 9 10 10 11 12 11 12 12
7 8 8 7 6 6 5 4 4 4 4 3 4 3 2 2 2 2 1 1 2 2 2 3 0 5 4 4 3 3 2 2 2 2 3 4 5 5 4 4 4 5 5 5 6 6 6 6 6 6 6 6 6 6 6 6 6 7 7 7 7 7 8 8 8 9 9 9 8 9 9 9 9 9 9 10 10 10 10 10 10 10 10 10 11
7 6 6 7 6 5 4 3 4 4 3 2 1 1 1 1 1 2 2 2 2 1 2 2 2 1 4 3 3 3 2 3 2 3 3 2 3 3 4 4 5 5 5 4 5 6 6 6 6 5 5 5 5 6 5 6 6 6 6 7 6 9 8 8 8 8 8 8 8 8 9 9 9 9 9 10 10 11 11 11 11 10 11 11 11
7 7 6 6 6 4 4 3 2 2 3 3 2 3 3 3 3 3 2 2 1 1 1 2 2 3 3 3 2 3 3 3 3 3 3 4 3 4 5 5 6 6 6 7 8 8 7 7 6 6 5 5 4 5 5 5 5 5 6 8 8 8 7 7 7 7 7 8 8 9 8 8 8 8 8 10 11 11 11 11 11 12 12 11 12
7 7 4 5 6 5 5 5 4 3 3 4 4 5 5 6 4 2 2 2 1 1 2 2 2 3 3 3 3 3 3 3 3 3 3 3 4 5 5 4 4 5 5 5 5 5 5 5 5 5 5 5 5 5 5 5 4 5 9 8 8 7 6 6 6 7 8 8 8 7 8 8 9 9 12 11 11 11 11 11 12 12 12 13 13
2 4 5 6 8 6 4 2 3 4 4 4 4 2 2 6 6 3 1 1 2 3 2 2 3 3 2 2 2 3 3 4 3 4 4 4 4 4 4 4 5 5 5 6 6 5 5 5 5 5 5 6 5 6 5 5 6 5 9 7 7 6 6 5 6 6 7 7 7 7 8 8 9 9 10 9 9 10 11 11 11 12 13 14 13
6 6 6 5 5 4 3 4 2 3 4 4 1 1 2 3 2 1 1 0 1 1 1 1 1 1 2 2 3 3 3 4 4 5 5 5 4 4 4 4 4 4 4 4 4 4 4 4 4 5 5 5 5 5 5 4 5 5 7 6 6 5 6 6 5 6 6 7 7 8 8 8 8 9 9 10 10 10 10 11 11 11 11 12 12
6 5 4 5 3 3 1 3 3 4 6 4 5 5 6 7 7 5 3 2 2 3 3 3 2 2 2 2 3 3 3 3 3 4 4 4 4 4 4 4 4 4 4 4 4 4 4 4 4 4 4 4 4 4 4 4 5 5 7 5 5 9 8 8 6 6 7 6 7 7 8 8 9 10 10 10 11 10 10 11 11 12 11 11 12
4 3 2 3 2 1 2 2 2 2 2 3 5 4 4 3 1 1 3 4 3 3 4 3 2 2 3 3 3 3 3 3 3 3 4 4 4 3 3 3 3 4 4 4 5 4 4 4 4 4 4 4 4 4 4 4 4 6 5 4 5 6 8 8 8 9 7 6 7 7 8 9 9 10 10 10 10 11 11 11 11 11 11 12 12
1 3 1 2 2 1 1 3 1 1 2 2 3 5 6 7 5 3 3 4 4 4 4 4 3 3 3 3 3 3 3 3 3 3 3 4 4 3 4 4 4 4 4 4 4 5 5 5 5 5 5 5 5 4 4 3 6 5 5 8 6 8 8 9 7 9 9 7 7 8 8 9 10 10 10 10 10 10 12 13 13 12 11 11 11
Wind_Direction
168 180 175 188 187 177 193 192 200 206 211 177 194 205 216 203 212 208 177 184 192 191 192 198 205 189 210 181 184 200 222 219 200 168 219 219 202 239 170 217 214 235 231 269 282 203 206 229 259 289 312 300 276 250 197 180 201 168 163 183 176 181 178 195 231 261 276 265 265 291 317 317 305 329 307 323 320 315 331 295 299 290 285 297 315
162 178 177 171 188 188 193 189 200 198 207 204 203 204 220 208 232 224 190 201 209 187 203 209 207 197 203 202 185 180 204 216 180 201 224 206 241 224 216 194 228 239 226 256 228 258 232 212 248 232 211 224 245 261 69 1 294 165 195 234 181 179 168 176 229 262 285 278 282 303 275 301 318 349 326 308 288 310 299 311 301 308 310 317 323
158 164 175 168 178 183 181 202 199 203 204 209 210 217 211 217 207 223 226 213 202 198 192 224 206 191 235 173 179 191 202 222 216 199 214 226 222 249 256 245 226 225 229 218 229 230 249 236 234 227 242 219 240 251 268 180 126 141 218 227 203 163 194 211 190 222 265 290 320 308 335 339 314 305 292 282 300 297 298 291 309 323 318 313 316
158 159 169 161 171 181 191 189 201 220 219 209 218 214 216 217 214 225 225 234 222 200 225 234 203 186 211 238 191 224 167 200 222 234 196 213 222 244 236 198 236 257 250 229 225 240 252 232 243 266 269 328 253 243 243 210 266 306 27 312 106 14 167 226 217 265 277 289 286 294 288 290 281 273 271 276 283 291 279 281 287 291 287 299 314
174 167 168 178 177 183 189 199 200 203 221 226 225 221 221 221 209 215 225 232 220 212 175 239 249 179 210 210 223 219 233 213 216 231 211 233 245 237 231 225 217 220 236 234 250 238 231 239 248 251 267 265 291 230 213 17 353 347 269 195 93 311 259 221 232 234 262 272 276 259 266 262 262 265 267 299 296 279 283 283 283 271 273 274 310
176 168 174 184 188 188 196 196 206 209 212 215 246 253 233 226 231 207 220 232 223 226 194 199 207 198 202 234 227 215 218 232 222 242 237 206 227 237 257 261 265 253 239 244 235 238 245 240 249 248 240 215 235 223 136 184 210 222 236 45 213 219 247 322 307 274 264 258 260 272 256 271 284 301 305 290 278 283 293 288 280 280 277 287 290
206 164 180 189 189 204 198 204 203 211 194 198 207 251 268 267 242 229 205 228 247 228 232 186 191 203 204 224 238 228 224 231 240 228 241 240 208 195 249 256 265 263 256 244 245 223 219 227 213 222 246 239 238 235 217 216 230 243 223 214 343 6 287 258 263 288 302 314 306 294 288 288 319 297 278 260 270 269 275 298 301 295 289 291 295
206 168 183 181 184 199 204 205 208 205 182 182 204 242 268 273 289 310 272 226 232 250 251 233 188 209 210 226 232 241 224 231 241 254 246 239 244 203 80 281 255 282 282 281 268 267 251 235 253 242 224 239 246 275 273 245 65 4 23 47 243 321 343 335 329 328 309 304 292 296 305 291 277 262 275 298 322 313 294 293 302 322 322 323 326
176 184 190 189 184 177 206 214 201 204 209 185 181 205 231 262 285 302 301 284 247 240 237 254 242 197 216 206 218 231 238 226 232 235 231 243 252 251 182 223 227 256 276 281 269 253 254 254 249 257 228 218 213 209 125 116 113 214 340 357 322 304 295 309 300 301 301 281 282 289 288 288 279 285 331 346 332 305 322 350 337 333 337 325 317
174 184 192 197 198 187 187 193 196 154 141 149 165 189 225 247 274 324 344 341 329 344 330 318 293 266 206 211 213 230 238 238 257 213 211 234 240 251 278 82 311 292 293 299 291 290 299 283 260 246 183 193 189 157 150 142 154 289 98 65 338 314 303 293 285 276 281 293 290 291 289 297 328 338 337 322 345 359 350 348 337 329 322 313 305
207 204 193 186 196 187 183 180 146 160 147 151 153 181 135 16 8 347 330 321 338 346 346 335 307 298 292 260 232 248 357 7 5 21 296 212 193 224 228 203 201 201 287 302 298 297 295 286 289 276 210 185 171 164 135 145 168 180 212 216 258 288 291 293 302 322 317 308 313 310 314 324 322 335 329 347 1 346 331 328 321 321 320 323 316
315 284 280 257 203 205 207 212 196 186 185 193 209 201 215 202 254 289 300 315 334 344 335 327 326 316 327 358 6 50 70 9 5 14 28 21 10 319 224 221 235 222 220 246 277 309 348 5 4 9 6 345 338 246 171 184 191 205 220 229 243 251 240 240 273 288 289 299 303 294 298 298 319 331 336 340 330 320 318 319 308 312 313 307 303
310 316 322 303 328 324 318 271 251 242 213 220 216 222 217 228 232 238 246 269 340 13 310 297 320 45 64 86 85 55 55 7 7 12 17 24 14 354 324 326 308 308 307 312 61 90 93 112 315 108 141 11 2 315 286 196 161 314 300 284 275 258 256 249 203 223 265 279 284 299 297 303 301 306 325 309 311 309 322 315 313 307 299 294 292
56 56 48 43 31 13 360 318 278 269 266 260 243 237 229 235 245 239 240 223 202 190 234 259 21 66 45 97 100 89 65 14 6 16 21 18 12 2 354 347 314 291 341 37 53 46 98 132 181 184 125 100 326 319 334 14 25 339 316 280 265 276 228 214 234 225 204 227 255 271 280 291 287 297 304 327 331 322 316 309 314 303 296 290 295
45 44 55 58 43 30 17 344 358 321 297 285 294 328 354 337 327 317 324 332 321 210 226 127 83 106 105 56 61 70 46 8 8 10 18 5 356 327 327 317 322 17 29 52 73 25 347 232 236 104 148 153 70 330 359 352 12 326 282 285 281 255 183 215 205 234 226 231 233 244 262 275 301 317 306 298 290 288 286 289 290 288 294 295 285
50 52 58 49 52 56 58 51 46 50 29 349 273 18 31 309 277 319 326 327 298 237 145 133 114 118 126 101 83 92 69 28 8 4 4 3 331 320 331 25 37 12 37 62 58 34 11 309 307 231 138 72 6 354 17 335 326 310 327 313 299 302 254 209 214 211 234 280 306 305 304 301 294 287 285 288 292 281 288 289 290 292 289 297 312
48 32 36 41 42 47 71 84 74 56 51 58 55 52 57 45 68 45 25 328 251 220 182 138 162 148 125 95 74 66 52 21 18 11 6 2 359 357 8 30 27 19 37 47 56 41 32 355 266 238 79 53 9 2 3 352 338 346 323 314 307 303 311 304 211 232 251 256 264 278 282 283 284 282 281 275 261 277 331 302 279 286 305 313 309
54 51 42 26 23 26 37 66 82 78 69 66 57 46 46 37 34 41 32 333 311 254 187 173 173 163 128 118 103 93 68 26 23 12 13 8 350 352 350 19 347 3 48 58 69 83 48 50 51 39 51 35 10 14 3 347 354 351 326 324 316 306 333 354 344 338 278 318 318 302 290 287 284 281 275 270 270 230 197 236 269 304 299 301 307
47 49 36 26 14 14 38 41 56 81 83 79 72 50 36 49 44 70 343 330 329 303 205 186 177 156 131 109 113 106 84 48 31 12 19 21 5 336 12 15 330 340 9 349 99 132 104 59 61 66 76 52 36 31 20 4 359 344 345 311 303 323 38 351 343 341 338 322 311 315 306 291 283 278 273 264 259 225 198 236 278 283 287 297 305
50 51 41 24 17 19 20 34 51 54 66 70 96 117 128 117 254 106 52 32 12 358 345 205 130 118 105 104 104 105 90 68 41 24 29 25 11 342 76 62 57 39 4 23 13 111 129 125 107 83 81 67 47 39 39 31 10 336 340 332 333 345 354 337 329 325 319 306 296 295 289 285 281 286 295 291 277 224 171 215 252 293 294 290 294
67 67 64 51 42 35 26 21 20 6 22 78 32 24 177 151 120 96 72 32 19 5 28 1 101 104 104 103 102 95 104 90 55 41 41 37 27 23 70 53 49 257 236 262 258 296 249 123 100 73 31 30 11 16 26 354 314 309 306 300 305 304 323 312 313 320 304 297 292 289 291 314 331 318 302 311 336 78 43 6 344 343 332 324 324
93 92 80 73 71 65 51 22 11 9 350 0 15 51 33 37 57 90 89 67 41 24 19 30 62 96 99 99 98 98 90 92 90 52 48 50 46 37 45 43 337 299 309 253 257 246 258 158 103 74 351 340 335 308 308 297 280 270 259 262 289 314 308 299 298 298 301 310 307 299 319 329 313 303 307 315 343 35 16 359 350 329 307 287 291
92 102 118 122 124 124 124 55 24 343 357 358 359 22 47 79 78 84 99 109 69 48 38 29 43 93 106 110 113 109 107 98 91 75 52 50 45 50 36 21 346 346 342 269 222 251 136 94 116 151 298 293 283 291 282 274 264 244 255 267 274 286 287 276 281 286 287 286 293 295 319 311 302 309 324 355 5 14 356 341 312 295 301 331 340
112 98 84 109 136 138 123 107 103 310 347 25 18 24 11 11 28 18 52 75 98 128 137 76 75 138 126 132 127 116 101 87 70 92 85 52 41 33 20 5 17 356 317 20 45 48 20 9 337 316 300 283 285 279 277 265 258 262 262 263 268 263 261 274 264 258 257 261 264 308 301 283 292 311 13 2 340 334 320 317 313 338 344 332 344
95 88 92 96 88 106 130 148 141 239 324 50 51 38 25 12 27 10 360 14 59 48 353 80 208 191 143 148 128 119 123 112 125 151 136 114 69 29 10 7 3 8 357 26 24 8 336 318 307 301 296 296 291 283 263 249 244 248 255 261 264 248 239 241 255 268 277 269 284 274 281 291 291 17 348 325 324 323 322 308 337 346 335 337 336
71 82 90 46 32 64 102 107 117 122 114 84 128 118 102 48 30 354 30 31 16 5 1 21 16 349 49 97 103 115 99 104 80 62 30 37 31 17 15 10 10 357 358 39 5 356 353 337 325 319 313 299 289 281 283 280 286 279 268 248 234 235 237 241 247 239 235 252 289 307 287 290 14 346 335 328 324 314 297 318 352 335 345 332 332
98 98 80 90 87 48 20 346 158 173 177 152 137 141 115 70 76 73 31 16 23 29 14 19 52 19 345 40 71 74 74 59 44 29 20 17 16 10 14 8 5 0 359 7 358 346 331 326 310 299 285 281 275 267 266 276 279 274 269 243 222 222 228 232 249 257 234 255 257 252 284 25 357 311 290 316 319 304 334 335 333 337 345 341 327
160 164 165 168 166 132 98 345 290 24 53 58 54 31 33 356 91 58 43 25 18 18 8 16 42 22 11 359 358 81 67 55 34 26 12 11 8 9 19 13 4 352 348 354 337 322 316 309 302 290 284 278 272 255 240 234 235 245 246 253 223 204 216 223 229 252 265 252 269 280 359 10 294 295 334 326 304 313 335 346 5 343 335 322 311
356 127 135 113 80 298 137 75 39 9 85 99 72 56 34 30 35 73 57 41 41 28 11 9 10 20 63 51 31 54 63 60 48 13 13 346 12 3 9 2 349 331 342 351 327 312 312 304 296 291 267 248 249 255 252 202 214 230 240 244 354 335 279 263 263 223 214 226 243 8 353 348 335 338 324 313 310 316 357 6 348 325 307 292 293
77 51 45 41 40 31 46 56 47 17 14 56 108 94 59 53 37 43 84 85 76 68 69 64 23 9 51 60 46 48 76 98 123 103 263 334 292 268 272 286 293 297 317 321 301 296 296 300 294 292 301 345 348 352 339 351 4 342 355 7 343 354 3 19 31 10 9 13 10 4 4 341 306 294 311 293 290 312 9 351 318 324 326 327 322
183 118 78 61 41 25 40 53 49 31 20 32 11 104 134 65 45 48 65 95 98 96 92 89 65 41 48 104 69 86 111 135 164 202 254 261 269 279 274 273 281 304 338 342 313 295 296 289 288 291 327 347 327 319 345 3 16 12 7 7 4 8 1 29 25 3 7 358 345 337 323 316 314 318 307 305 299 295 322 11 356 342 318 311 311
296 83 104 99 84 1 102 94 16 161 109 0 28 340 186 139 77 51 75 79 65 79 83 69 63 68 55 64 113 124 153 170 191 206 232 247 261 269 276 281 286 315 317 207 285 280 276 277 284 309 302 280 331 2 13 7 13 17 13 10 355 344 353 16 7 356 349 331 336 334 311 300 296 298 307 307 328 351 9 346 328 303 294 305 311
97 113 103 118 124 88 72 86 84 32 28 23 325 169 293 239 152 167 57 81 82 70 44 54 77 97 103 79 65 101 135 179 209 247 260 275 285 284 288 293 282 259 146 224 259 272 274 275 274 269 319 7 359 2 16 8 7 358 2 346 325 0 14 360 352 339 330 331 321 316 334 335 344 347 337 339 347 342 341 323 311 315 319 313 309
51 44 54 51 49 13 11 53 4 103 109 23 359 324 313 349 0 138 160 167 104 341 173 244 281 308 90 107 125 164 189 221 240 250 262 270 274 282 294 282 271 211 202 254 255 264 271 272 342 19 7 353 353 6 358 360 349 344 337 354 4 9 356 355 342 357 3 4 357 351 351 350 345 335 334 335 333 331 321 315 318 311 312 320 324
103 86 83 61 77 152 156 27 36 28 25 20 0 322 339 355 313 282 295 207 186 183 193 196 215 205 191 200 240 221 230 241 246 251 258 262 265 286 288 273 241 141 201 220 234 254 278 10 7 14 5 358 12 351 346 351 358 358 7 3 358 359 355 345 350 16 359 346 333 331 330 319 313 310 315 318 323 318 315 315 311 317 320 326 325
147 137 134 166 186 73 75 73 61 36 22 7 329 317 322 302 297 325 335 334 320 310 140 162 181 200 216 256 228 224 240 238 244 255 265 270 286 330 323 303 345 92 187 197 218 247 5 23 12 8 359 0 7 7 12 5 18 3 3 3 8 358 350 353 356 340 329 313 299 288 276 273 286 304 319 317 317 315 319 325 333 336 333 327 325
174 164 158 152 122 112 89 95 101 76 49 280 270 281 275 282 318 311 303 316 315 64 357 129 148 133 164 221 216 237 247 250 249 256 263 263 256 285 271 298 355 348 350 22 29 23 8 18 4 11 18 11 16 7 4 360 5 360 12 12 359 342 347 341 312 301 299 308 315 331 337 337 342 345 346 339 334 333 337 340 340 343 346 347 345
62 91 121 122 148 141 156 194 141 153 197 208 219 234 231 239 240 272 302 304 337 325 301 301 326 207 176 185 176 192 249 250 261 259 254 263 262 238 277 7 357 348 23 25 28 10 19 11 26 17 16 8 11 358 357 3 4 2 10 354 341 344 346 336 348 8 360 358 3 1 355 352 353 2 1 350 344 341 349 359 354 341 337 337 335
118 82 86 81 56 323 252 207 179 211 200 235 204 208 341 340 337 337 329 335 321 311 301 269 250 27 53 95 107 33 13 21 9 3 349 346 346 9 10 335 6 22 21 17 17 20 11 17 31 24 18 10 8 4 356 350 350 357 349 333 338 342 344 350 353 355 351 353 350 353 349 348 345 344 344 336 335 343 344 340 334 331 324 318 313
167 160 146 149 184 206 251 232 229 222 270 274 238 278 244 215 257 280 267 289 298 309 359 327 49 78 61 56 48 30 18 5 357 351 336 337 344 359 346 359 12 17 8 14 26 21 12 25 25 12 8 4 5 2 7 2 3 359 358 1 356 355 359 0 2 357 356 353 345 353 355 351 356 351 346 349 348 341 332 326 326 323 321 320 322
187 164 154 179 216 190 202 211 205 232 213 209 211 229 224 257 306 291 288 282 271 286 283 331 78 90 88 90 75 41 24 346 330 310 317 321 330 322 1 15 13 7 1 10 37 30 23 11 5 359 3 7 5 10 3 2 0 358 356 351 355 353 349 353 355 357 357 358 15 16 6 5 5 0 357 354 349 346 342 339 335 333 330 326 323
188 152 163 170 185 214 209 203 214 183 175 1 318 282 281 258 238 241 272 301 340 331 319 333 103 111 119 135 124 132 311 312 352 332 284 295 316 358 5 9 7 20 20 20 17 14 17 15 10 3 359 3 4 2 1 360 360 352 350 350 346 348 344 347 8 21 14 6 4 5 2 360 358 353 351 350 350 350 345 345 341 337 334 332 329
198 167 170 165 175 196 211 208 187 180 173 198 206 208 250 295 297 314 289 267 297 311 339 320 97 136 142 176 189 223 253 67 34 21 13 21 14 6 356 3 8 30 36 24 22 14 7 4 1 358 0 357 0 359 355 355 351 348 344 345 342 343 15 27 16 11 7 2 358 357 356 354 353 350 345 341 336 335 333 332 330 325 320 318 317
200 199 182 173 182 185 201 200 188 200 209 174 133 133 155 194 239 223 263 292 304 309 307 301 324 66 137 179 236 245 20 30 20 21 18 356 1 354 357 1 13 10 16 23 24 15 4 357 353 351 352 352 358 5 357 351 351 346 348 335 355 41 35 21 15 5 359 1 358 357 351 348 342 339 334 330 328 323 320 318 317 318 317 315 314
209 206 195 202 206 193 177 188 235 208 198 181 204 213 216 243 251 266 274 277 221 271 288 331 340 331 333 345 350 10 15 5 15 12 13 8 357 1 14 10 12 13 14 18 24 15 4 354 346 341 336 347 359 360 355 352 344 337 348 35 55 41 30 18 5 360 356 3 0 350 341 336 334 329 329 325 319 317 316 318 317 316 314 312 314
218 215 213 215 212 197 205 182 173 208 222 228 220 211 193 193 189 215 255 263 292 306 329 336 341 349 343 340 344 343 359 13 2 11 354 352 359 4 5 1 1 8 10 8 7 2 348 335 326 329 342 346 357 349 347 336 343 358 57 63 48 48 29 9 359 5 12 1 345 338 333 332 328 325 321 316 313 310 308 309 309 309 308 307 302
317 246 192 222 237 230 212 200 171 185 218 226 225 247 358 352 359 18 54 9 0 356 336 327 339 341 339 322 328 354 11 5 360 346 354 1 360 349 345 354 359 2 6 2 359 349 343 334 340 343 349 346 344 348 348 348 342 22 74 58 54 39 36 358 19 27 8 352 343 341 338 330 322 318 318 317 313 306 302 298 295 293 294 295 297
195 218 225 235 245 229 158 145 202 232 225 224 213 47 36 15 9 1 314 274 195 221 273 303 298 295 293 322 350 358 354 354 359 356 354 348 344 343 347 346 354 2 353 340 332 337 341 337 334 334 338 345 343 342 341 351 336 48 70 54 54 51 20 11 34 30 4 349 347 341 329 321 314 313 312 309 303 299 296 296 296 296 298 298 298
210 214 231 228 252 266 238 153 179 212 225 225 203 203 196 189 188 195 213 251 311 306 301 310 313 312 330 343 351 356 358 339 331 347 347 335 332 336 345 351 349 348 333 324 331 343 343 331 334 342 344 348 342 350 331 351 338 44 65 65 73 60 40 39 42 22 354 347 339 325 316 310 309 307 305 302 301 300 300 301 301 302 301 299 298
257 209 209 214 183 304 330 328 272 264 304 286 279 250 194 162 122 311 276 274 280 301 304 303 315 336 346 341 336 327 319 324 337 340 330 328 325 329 325 331 327 324 325 330 338 331 322 328 338 336 344 339 345 339 350 331 12 50 55 89 100 64 41 25 21 19 3 346 329 316 309 303 302 299 296 295 296 297 297 296 295 296 296 297 296
240 269 128 326 268 181 239 232 228 16 338 358 20 25 23 12 358 342 285 255 253 261 271 271 284 287 287 290 312 319 332 333 338 327 308 300 300 308 319 325 325 327 336 343 332 323 332 337 339 340 340 337 332 333 327 5 59 19 98 126 79 34 27 14 2 351 349 338 323 314 305 301 296 296 291 290 290 291 290 293 295 294 294 294 295